User: anonymous   Login
Location: Newark
(7.0858°N, 171.3717°E)
Time: 09:21:12
(UTC+00:00)
Language:

Max Valier Satellite - Orbit

View from above orbital plane
View from above orbital plane
View from above satellite
View from above satellite

Ground track
Ground track

The orbit data is extracted from the following two-line orbital elements,

1 42778U 17036P   19291.15001807  .00000773  00000-0  36606-4 0  9991
2 42778  97.3410 346.0616 0013216 151.4354 208.7609 15.22186583128718
Epoch (UTC): 18 October 2019 03:36:01
Eccentricity: 0.0013216
inclination: 97.3410°
perigee height: 490 km
apogee height: 508 km
right ascension of ascending node: 346.0616°
argument of perigee: 151.4354°
revolutions per day: 15.22186583
mean anomaly at epoch: 208.7609°
orbit number at epoch: 12871

The dashed part of the orbit path shows where the satellite is in the earth's shadow,  

DLR